Weather History for KRWI - July, 2013

Change the Weather History Date:

Tuesday, July 23, 2013

  Actual Average Record
Temperature  
Mean Temperature 82 °F -  
Max Temperature 91 °F 90 °F 102 °F (2011)
Min Temperature 75 °F 69 °F 54 °F (1966)
Cooling Degree Days 17    
Growing Degree Days 32 (Base 50)    
Moisture  
Dew Point 72 °F    
Average Humidity 75    
Maximum Humidity 90    
Minimum Humidity 55    
Precipitation  
Precipitation 0.00 in - - ()
Sea Level Pressure  
Sea Level Pressure 29.78 in    
Wind  
Wind Speed 8 mph (SW)    
Max Wind Speed 13 mph    
Max Gust Speed 18 mph    
Visibility 10 miles    
Events      
Averages and records for this station are not official NWS values.
T = Trace of Precipitation, MM = Missing Value Source: NWS Daily Summary

Daily Weather History Graph

Daily Weather History Graph

Search for Another Location

Airport or City:

Trip Planner

Search our weather history database for the weather conditions in past years. The results will help you decide how hot, cold, wet, or windy it might be!

Date:

Astronomy

Jul. 23, 2013 Rise Set
Actual Time 6:12 AM EDT 8:23 PM EDT
Civil Twilight 5:43 AM EDT 8:51 PM EDT
Nautical Twilight 5:08 AM EDT 9:27 PM EDT
Astronomical Twilight 4:30 AM EDT 10:05 PM EDT
Moon 8:55 PM EDT (7/23) 7:14 AM EDT (7/23)
Length of Visible Light 15h 08m
Length of Day
14h 10m
Full, 99% of the Moon is Illuminated
Jul 23
Full
Jul 29
Last Quarter
Aug 6
New
Aug 14
First Quarter
Aug 20
Full

Hourly Weather History & Observations

Time (EDT) Temp. Heat Index Dew Point Humidity Pressure Visibility Wind Dir Wind Speed Gust Speed Precip Events Conditions
12:53 AM 78.1 °F - 73.0 °F 84% 29.85 in 10.0 mi SSW 10.4 mph - N/A   Clear
1:53 AM 77.0 °F - 72.0 °F 84% 29.83 in 10.0 mi SSW 5.8 mph - N/A   Clear
2:53 AM 75.9 °F - 72.0 °F 87% 29.81 in 10.0 mi South 5.8 mph - N/A   Clear
3:53 AM 75.9 °F - 72.0 °F 87% 29.79 in 9.0 mi South 8.1 mph - N/A   Clear
4:53 AM 75.9 °F - 72.0 °F 87% 29.78 in 9.0 mi SSW 8.1 mph - N/A   Clear
5:53 AM 75.0 °F - 72.0 °F 90% 29.80 in 9.0 mi SSW 8.1 mph - N/A   Clear
6:24 AM 75.2 °F - 71.6 °F 89% 29.81 in 8.0 mi SSW 8.1 mph - N/A   Mostly Cloudy
6:53 AM 75.9 °F - 72.0 °F 87% 29.82 in 8.0 mi SW 10.4 mph - N/A   Overcast
7:12 AM 77.0 °F - 71.6 °F 83% 29.82 in 8.0 mi SSW 11.5 mph - N/A   Mostly Cloudy
7:53 AM 77.0 °F - 72.0 °F 84% 29.81 in 9.0 mi SW 11.5 mph - N/A   Overcast
8:53 AM 79.0 °F - 72.0 °F 79% 29.82 in 10.0 mi WSW 12.7 mph 18.4 mph N/A   Overcast
9:28 AM 80.6 °F 84.6 °F 71.6 °F 74% 29.81 in 10.0 mi WSW 12.7 mph - N/A   Scattered Clouds
9:53 AM 82.0 °F 86.7 °F 72.0 °F 71% 29.81 in 10.0 mi WSW 9.2 mph 16.1 mph N/A   Partly Cloudy
10:53 AM 84.9 °F 90.7 °F 72.0 °F 65% 29.80 in 10.0 mi SW 9.2 mph - N/A   Scattered Clouds
11:53 AM 87.1 °F 92.8 °F 71.1 °F 59% 29.79 in 10.0 mi WSW 11.5 mph 17.3 mph N/A   Scattered Clouds
12:53 PM 84.9 °F 90.1 °F 71.1 °F 63% 29.78 in 10.0 mi WSW 5.8 mph - N/A   Mostly Cloudy
1:53 PM 88.0 °F 93.8 °F 71.1 °F 57% 29.78 in 10.0 mi WSW 9.2 mph - N/A   Mostly Cloudy
2:53 PM 89.1 °F 95.0 °F 71.1 °F 55% 29.76 in 10.0 mi WSW 8.1 mph - N/A   Mostly Cloudy
3:53 PM 89.1 °F 96.0 °F 72.0 °F 57% 29.74 in 10.0 mi West 4.6 mph - N/A   Mostly Cloudy
4:53 PM 89.1 °F 96.0 °F 72.0 °F 57% 29.73 in 10.0 mi WSW 9.2 mph - N/A   Partly Cloudy
5:53 PM 89.1 °F 96.0 °F 72.0 °F 57% 29.73 in 10.0 mi WSW 8.1 mph - N/A   Clear
6:53 PM 87.1 °F 92.8 °F 71.1 °F 59% 29.72 in 10.0 mi West 5.8 mph - N/A   Clear
7:53 PM 84.0 °F 92.6 °F 75.9 °F 76% 29.73 in 10.0 mi Calm Calm - N/A   Clear
8:53 PM 79.0 °F - 75.0 °F 88% 29.74 in 10.0 mi Calm Calm - N/A   Clear
9:53 PM 77.0 °F - 73.0 °F 88% 29.77 in 10.0 mi Calm Calm - N/A   Clear
10:53 PM 78.1 °F - 73.0 °F 84% 29.79 in 10.0 mi Calm Calm - N/A   Clear
11:53 PM 75.9 °F - 72.0 °F 87% 29.77 in 10.0 mi Calm Calm - N/A   Clear